Regional Weather Roundup
Issued by NWS Sterling, VA

Home | Current Version | Previous Version | Text Only | Print | Product List | Glossary On
Versions: 1 2 3 4 5 6 7 8 9 10 11 12 13 14 15 16 17 18 19 20 21 22 23 24 25 26 27 28 29 30 31 32 33 34 35 36 37 38 39 40 41 42 43 44 45 46 47 48 49 50
000
ASUS41 KLWX 281410
RWRLWX

REGIONAL WEATHER ROUNDUP
NATIONAL WEATHER SERVICE BALTIMORE MD/WASHINGTON DC
1000 AM EDT TUE APR 28 2015

Note: "FAIR" indicates few or no clouds below 12,000 feet
with no significant weather and/or obstructions to visibility.
 TC=TEMPERATURE CELSIUS

 * =Non NWS site. Station does not report precipitation (e.g. rain,
    snow, etc.), thunder, or fog.

DCZ001-MDZ009-015-VAZ040>042-051-053>054-281500-
WASHINGTON METRO

CITY           SKY/WX    TMP DP  RH WIND       PRES   REMARKS
WASHINGTON NAT SUNNY     59  41  51 NW20      29.93F
DULLES         SUNNY     56  39  53 NW13G21   29.95S
ANDREWS AFB    SUNNY     57  40  53 NW16      29.91S
FT BELVOIR     SUNNY     58  39  49 NW13G23   29.93S
QUANTICO       SUNNY     58  38  47 N14G26    29.95F
COLLEGE PARK*  SUNNY     57  39  51 N13       29.92S
LEESBURG*      SUNNY     55  43  62 NW12G20   29.96S
MANASSAS*      SUNNY     59  41  51 N16       29.95S
GAITHERSBURG*  SUNNY     54  39  58 NW9G17    29.97S

$$

MDZ006>007-011-014-281500-
BALTIMORE METRO

CITY           SKY/WX    TMP DP  RH WIND       PRES   REMARKS
BWI AIRPORT    MOSUNNY   58  39  49 NW12G22   29.90F
MD SCIENCE CTR   N/A     59  37  44 MISG      29.91S
MARTIN STATE   SUNNY     59  43  55 NW13G18   29.91S
ANNAPOLIS      SUNNY     57  39  51 NW10      29.90F
FORT MEADE*    SUNNY     57  39  51 NW12      29.93F

$$

MDZ012-015-019>023-281500-
MARYLAND EASTERN SHORE

CITY           SKY/WX    TMP DP  RH WIND       PRES   REMARKS
OCEAN CITY     MOSUNNY   57  40  52 N13G22    29.86R
SALISBURY      MOSUNNY   57  40  52 N13       29.86S
BAY BRIDGE AP*   N/A    N/A N/A N/A NW10G17   29.90F
CAMBRIDGE*     SUNNY     55  39  54 NW13      29.88S
EASTON*        MOSUNNY   59  45  58 N12G25    29.92F

$$

MDZ017>025-281500-
SOUTHERN MARYLAND

CITY           SKY/WX    TMP DP  RH WIND       PRES   REMARKS
PATUXENT RIVER MOSUNNY   57  39  51 NW15      29.90F
ST INIGOES     SUNNY     56  39  53 NW9G17    29.89F
LEONARDTOWN*   SUNNY     55  37  50 NW9       29.92F

$$

MDZ003>005-281500-
NORTH CENTRAL MARYLAND

CITY           SKY/WX    TMP DP  RH WIND       PRES   REMARKS
FREDERICK*     SUNNY     61  37  41 N10       29.97S
HAGERSTOWN APT SUNNY     56  40  55 N10       29.96S
WESTMINSTER*   SUNNY     54  37  54 N9G16     29.92F

$$

MDZ501>502-281500-
WESTERN MARYLAND

CITY           SKY/WX    TMP DP  RH WIND       PRES   REMARKS
OAKLAND*       PTSUNNY   37 N/A N/A N6        30.02R
CUMBERLAND*    SUNNY     55  36  47 NW7       30.04F

$$

VAZ025>031-281500-
SHENANDOAH VALLEY

CITY           SKY/WX    TMP DP  RH WIND       PRES   REMARKS
WINCHESTER*    SUNNY     55  34  44 NW21G26   29.97S
FRONT ROYAL*   FAIR      54  37  54 N3        29.97F
LURAY*         FAIR      54  41  62 CALM      30.00R
NEW MARKET*    FAIR      52  38  58 E3        30.00S
STAUNTON*      SUNNY     52  37  57 N6        30.01F
WAYNESBORO*    FAIR      49  36  61 N7G17     30.00R

$$

WVZ021-048>050-054>055-281500-
EASTERN WEST VIRGINIA PANHANDLE

CITY           SKY/WX    TMP DP  RH WIND       PRES   REMARKS
MARTINSBURG    SUNNY     56  39  53 NW14      29.97S
PETERSBURG*    MOSUNNY   51  35  54 SW3       30.04S

$$

VAZ036>039-050-281500-
CENTRAL FOOTHILLS

CITY           SKY/WX    TMP DP  RH WIND       PRES   REMARKS
CHARLOTTESVILL SUNNY     57  37  47 VRB7      29.95F
CULPEPER*      SUNNY     59  41  51 N12G20    29.96R
ORANGE*        SUNNY     57  41  54 NW8G17    29.97S
GORDONSVILLE*  FAIR      55  38  52 NW5       29.95S
WARRENTON*     FAIR      58  42  55 N15G21    29.95S

$$

VAZ055>057-281500-
NORTH AND CENTRAL PIEDMONT

CITY           SKY/WX    TMP DP  RH WIND       PRES   REMARKS
FREDERICKSBRG* SUNNY     58  40  52 NW14G20   29.94S
STAFFORD*      SUNNY     56  38  51 N10G18    29.98F

$$

NCZ024-NYZ072-PAZ021-071-VAZ022-071-281500-
OTHER REGIONAL OBSERVATIONS

CITY           SKY/WX    TMP DP  RH WIND       PRES   REMARKS
NEW YORK CITY  SUNNY     57  34  41 NE9G21    29.83R
PHILADELPHIA   MOSUNNY   59  38  45 N22G31    29.85S
PITTSBURGH     MOSUNNY   49  38  65 W6        30.07S
ROANOKE        SUNNY     52  34  50 NE10      30.03R
RICHMOND       MOSUNNY   58  39  49 N15       29.93S
RALEIGH        MOSUNNY   54  36  50 VRB6      30.00R

$$

ANZ530>537-281500-
MARINE OBSERVATIONS

STATION/POSITION TIME  TEMP    WIND        PRES
                       AIR SEA DIR/SP/G
                 (UTC) (F)     (DEG/KT/KT) (MB)
THOMAS PT LIGHT  1400   55 53  330/ 15/ 17 1012.9F
BALT KEY BRIDGE  1300   53     310/ 11/ 13 1012.7R
COVE POINT       1300   51     350/ 20/ 23 1013.2R
LEWISETTA        1300   52 57              1012.6F
SOLOMONS ISLAND  1300      55                N/A
PINEY POINT      1300          340/ 18/ 20   N/A

$$




USA.gov is the U.S. government's official web portal to all federal, state and local government web resources and services.